CW6382 Weather Reports


Display with metric or nautical units.
time (UTC)temp
F
wind
direction
speed
MPH
gust
MPH
rain 1hr
in
rain 24hr
in
rain mn
in
humidity
%
barometer
mb
20260506013035 61 274 7.0 15.0 0.00 0.12 0.12 36 1013.6
20260506011510 61 239 6.0 20.0 0.00 0.12 0.12 33 1013.5
20260506010020 61 250 9.0 18.0 0.00 0.12 0.12 34 1013.5
20260506004505 60 259 11.0 21.0 0.00 0.12 0.12 33 1013.5
20260506003008 62 224 11.0 23.0 0.00 0.12 0.12 31 1013.5
20260506001521 64 271 7.0 22.0 0.00 0.12 0.12 31 1013.5
20260506000005 63 249 10.0 22.0 0.00 0.12 0.12 30 1013.4
20260505234512 62 262 10.0 22.0 0.00 0.12 0.12 32 1013.4
20260505233022 62 238 11.0 18.0 0.00 0.12 0.12 36 1013.3
20260505231508 62 259 10.0 19.0 0.00 0.12 0.12 36 1013.2
20260505230034 62 247 11.0 17.0 0.00 0.12 0.12 39 1013.6
20260505224524 63 243 9.0 16.0 0.00 0.12 0.12 38 1013.6
20260505223010 62 238 10.0 19.0 0.00 0.12 0.12 42 1013.9
20260505221520 62 163 5.0 14.0 0.00 0.12 0.12 45 1013.8
20260505220006 60 268 7.0 15.0 0.00 0.12 0.12 47 1014.3
20260505214519 61 186 8.0 18.0 0.00 0.12 0.12 49 1014.5
20260505213028 61 271 7.0 17.0 0.00 0.12 0.12 47 1014.7
20260505211506 61 182 4.0 11.0 0.00 0.12 0.12 51 1014.9
20260505210016 59 264 3.0 11.0 0.00 0.12 0.12 53 1015.2
20260505204523 60 265 3.0 9.0 0.00 0.12 0.12 50 1015.0
20260505203010 61 223 5.0 15.0 0.00 0.12 0.12 51 1015.4
20260505201521 62 181 9.0 18.0 0.00 0.12 0.12 46 1015.5
20260505200033 61 278 4.0 15.0 0.00 0.12 0.12 50 1015.8
20260505194514 59 284 7.0 15.0 0.00 0.12 0.12 57 1016.0
20260505193023 58 314 5.0 15.0 0.00 0.12 0.12 58 1016.3
20260505191508 58 273 9.0 16.0 0.00 0.12 0.12 57 1016.4
20260505190020 57 259 6.0 14.0 0.00 0.12 0.12 61 1016.6
20260505184526 56 292 4.0 11.0 0.00 0.12 0.12 65 1016.9
20260505183011 55 261 5.0 14.0 0.00 0.12 0.12 67 1017.0
20260505181521 54 278 7.0 14.0 0.00 0.12 0.12 68 1017.0
20260505180027 54 249 4.0 9.0 0.00 0.12 0.12 73 1017.0
20260505174516 53 271 3.0 14.0 0.00 0.12 0.12 73 1017.0
20260505173038 53 268 5.0 12.0 0.00 0.12 0.12 75 1017.0
20260505171509 52 332 5.0 12.0 0.00 0.12 0.12 74 1017.0
20260505170025 53 230 3.0 9.0 0.00 0.12 0.12 76 1017.0
20260505164503 51 283 3.0 9.0 0.00 0.12 0.12 79 1016.9
20260505163014 50 287 4.0 7.0 0.00 0.12 0.12 79 1016.8
20260505161522 50 259 1.0 5.0 0.02 0.12 0.12 83 1016.8
20260505153022 48 306 1.0 4.0 0.04 0.12 0.12 88 1016.5
20260505151507 47 30 1.0 2.0 0.02 0.10 0.10 86 1016.5
20260505124528 44 22 2.0 8.0 0.08 0.08 0.08 87 1015.9
20260505123017 44 258 0.0 7.0 0.07 0.07 0.07 84 1017.3
20260505121522 45 335 2.0 8.0 0.06 0.06 0.06 84 1017.5
20260505120026 45 269 5.0 12.0 0.05 0.05 0.05 81 1017.1
20260505114530 48 272 6.0 20.0 0.00 0.00 0.00 75 1017.2
20260505113024 50 291 5.0 18.0 0.00 0.00 0.00 68 1017.2
20260505111533 50 276 4.0 12.0 0.00 0.00 0.00 73 1016.9
20260505101520 50 275 1.0 4.0 0.00 0.00 0.00 73 1016.8
20260505100039 50 283 2.0 7.0 0.00 0.00 0.00 73 1016.9
20260505094517 50 276 2.0 8.0 0.00 0.00 0.00 73 1017.0
20260505093025 50 298 2.0 5.0 0.00 0.00 0.00 73 1016.6
20260505091538 49 357 1.0 4.0 0.00 0.00 0.00 74 1017.1
20260505090031 48 33 1.0 2.0 0.00 0.00 0.00 77 1016.9
20260505084533 47 21 1.0 3.0 0.00 0.00 0.00 80 1016.9
20260505083039 45 23 0.0 1.0 0.00 0.00 0.00 82 1017.2
20260505081529 46 234 0.0 0.0 0.00 0.00 0.00 78 1017.6
20260505080007 47 234 0.0 0.0 0.00 0.00 0.00 75 1017.7
20260505074514 49 235 0.0 2.0 0.00 0.00 0.00 73 1018.0
20260505071522 50 335 0.0 4.0 0.00 0.00 0.00 70 1017.8
20260505070026 49 115 0.0 1.0 0.00 0.00 0.00 71 1017.7
20260505064504 51 228 0.0 1.0 0.00 0.00 0.00 68 1017.9
20260505063015 51 333 2.0 6.0 0.00 0.00 0.00 67 1017.7
20260505061530 51 320 2.0 10.0 0.00 0.00 0.00 66 1017.3
20260505060004 51 328 2.0 5.0 0.00 0.00 0.00 65 1017.1
20260505054522 51 332 1.0 6.0 0.00 0.00 0.00 64 1017.5
20260505053024 52 23 2.0 8.0 0.00 0.00 0.00 64 1018.1
20260505051510 52 358 2.0 4.0 0.00 0.00 0.00 63 1018.4
20260505041523 53 290 5.0 13.0 0.00 0.00 0.00 61 1018.2
20260505040005 53 304 3.0 12.0 0.00 0.00 0.00 59 1018.5
20260505034518 54 308 3.0 13.0 0.00 0.00 0.00 57 1018.6
20260505033033 54 302 6.0 13.0 0.00 0.00 0.00 55 1018.6
20260505031510 55 342 8.0 13.0 0.00 0.00 0.00 53 1018.7
20260505030022 56 316 7.0 21.0 0.00 0.00 0.00 47 1018.1
20260505024548 57 338 8.0 14.0 0.00 0.00 0.00 45 1017.9
20260505023015 58 250 7.0 21.0 0.00 0.00 0.00 42 1017.9
20260505021541 61 290 8.0 15.0 0.00 0.00 0.00 34 1017.7
20260505020027 62 263 5.0 15.0 0.00 0.00 0.00 30 1017.3
20260505014522 62 266 5.0 17.0 0.00 0.00 0.00 29 1017.1